This is the latest recevied weather packets stored in our database for station/object G4WLC-1. If no packets are shown the sender has not sent any weather packets the latest 1 day(s).
| Time | Temp. | Humidity | Pressure | Rain* | Wind** | Luminosity | Snow |
|---|---|---|---|---|---|---|---|
| 1778003883 | 12.22° C | 70% | 1013.4 hPa | 0 mm | 0 m/s | - | - |
| 1778003583 | 12.22° C | 69% | 1013.3 hPa | 0 mm | 0 m/s | - | - |
| 1778003283 | 12.22° C | 69% | 1013.2 hPa | 0 mm | 0.45 m/s, 326° | - | - |
| 1778002983 | 12.78° C | 69% | 1013.3 hPa | 0 mm | 0.45 m/s, 15° | - | - |
| 1778002683 | 12.78° C | 70% | 1013.4 hPa | 0 mm | 0 m/s | - | - |
| 1778002383 | 13.33° C | 68% | 1013.3 hPa | 0 mm | 0 m/s | - | - |
| 1778002091 | 13.33° C | 70% | 1013.2 hPa | 0 mm | 0 m/s | - | - |
| 1778001783 | 13.33° C | 69% | 1013.2 hPa | 0 mm | 0.45 m/s, 3° | - | - |
| 1778001483 | 13.33° C | 69% | 1013.3 hPa | 0 mm | 0.45 m/s, 347° | - | - |
| 1778001183 | 13.33° C | 67% | 1013.4 hPa | 0 mm | 0.45 m/s, 13° | - | - |
| 1778000883 | 13.33° C | 63% | 1013.3 hPa | 0 mm | 0.45 m/s, 346° | - | - |
| 1778000583 | 13.33° C | 65% | 1013.3 hPa | 0 mm | 0 m/s | - | - |
| 1778000283 | 13.33° C | 64% | 1013.4 hPa | 0 mm | 0.45 m/s, 356° | - | - |
| 1777999983 | 13.33° C | 64% | 1013.3 hPa | 0 mm | 0 m/s | - | - |
| 1777999683 | 13.33° C | 64% | 1013.3 hPa | 0 mm | 0 m/s | - | - |
| 1777999383 | 13.33° C | 65% | 1013.4 hPa | 0 mm | 0 m/s | - | - |
| 1777999083 | 13.33° C | 63% | 1013.4 hPa | 0 mm | 0 m/s | - | - |
| 1777998783 | 13.33° C | 66% | 1013.2 hPa | 0 mm | 0 m/s | - | - |
| 1777998483 | 13.33° C | 68% | 1013.2 hPa | 0 mm | 0 m/s | - | - |
| 1777998183 | 13.33° C | 67% | 1013.3 hPa | 0 mm | 0.45 m/s, 5° | - | - |
| 1777997883 | 13.33° C | 66% | 1013.2 hPa | 0 mm | 0.45 m/s, 342° | - | - |
| 1777997583 | 13.33° C | 68% | 1013.3 hPa | 0 mm | 0 m/s | - | - |
| 1777997283 | 13.33° C | 68% | 1013.3 hPa | 0 mm | 0 m/s | - | - |
| 1777996983 | 12.78° C | 68% | 1013.3 hPa | 0 mm | 0.45 m/s, 267° | - | - |
| 1777996683 | 12.78° C | 69% | 1013.3 hPa | 0 mm | 0.45 m/s, 44° | - | - |
* Rain latest hour (hover to see other rain measurements)
** Current wind speed in m/s (hover to see current wind gust speed)